• Join FlightAware (Why Join?)
  • Login
  • US Flag GB Flag 
12:25 EDT


 

Airport Tracker/Info


-or-


 

Live Flight TrackerFlight Track Log ✈ SWA1044 ✈ 11-Apr-2013 ✈ KMSY - KLAS

Flight Track Log - Related Links

Times and Time Zones

All times are in EDT time to prevent confusion due to time zone crossing. See the SWA1044 flight status page for this flight to view local times or setup timezone preferences in your user account.

Time Position Orientation Groundspeed Altitude Reporting Facility
EDT Latitude Longitude Course Direction KTS MPH feet Rate Location/Type
12:19 29.9742 -90.2564 204° Southwest 139 160 1,500  Level Houston Center
12:20 29.9483 -90.2656 197° South 155 178 2,900 2,640 Climbing Houston Center
12:20 29.9286 -90.2703 192° South 171 197 4,200 3,180 Climbing Houston Center
12:21 29.9000 -90.2803 197° South 168 193 6,200 3,180 Climbing Houston Center
12:22 29.8567 -90.3381 229° Southwest 197 227 10,100 3,300 Climbing Houston Center
12:23 29.8253 -90.3914 236° Southwest 201 231 13,100 2,220 Climbing Houston Center
12:24 29.7892 -90.4467 233° Southwest 213 245 14,700 1,260 Climbing Houston Center
12:25 29.7378 -90.5236 232° Southwest 296 341 15,800 1,740 Climbing Houston Center
12:26 29.6828 -90.6089 233° Southwest 328 377 18,400 2,460 Climbing Houston Center
12:27 29.6147 -90.7147 234° Southwest 341 392 21,000 2,220 Climbing Houston Center
12:28 29.5672 -90.8150 241° Southwest 370 426 23,000 1,860 Climbing Houston Center
12:29 29.6039 -90.9317 290° West 393 452 24,900 1,740 Climbing Houston Center
12:30 29.6606 -91.0508 299° West 417 480 26,600 1,680 Climbing Houston Center
12:31 29.7000 -91.1769 290° West 418 481 28,400 1,800 Climbing Houston Center
12:32 29.7022 -91.3067 271° West 406 467 30,400 1,980 Climbing Houston Center
12:33 29.6975 -91.4306 268° West 390 449 32,600 1,800 Climbing Houston Center
12:34 29.7631 -91.5639 300° West 423 487 34,200 1,320 Climbing Houston Center
12:36 29.8428 -91.6669 312° West 430 495 35,400 840 Climbing Houston Center
12:37 29.9056 -91.7825 302° West 408 470 36,000 240 Climbing Houston Center
12:38 29.9589 -91.8956 299° West 401 461 36,000  Level Houston Center
12:39 30.0131 -92.0083 299° West 402 463 36,000  Level Houston Center
12:40 30.0678 -92.1244 299° West 408 470 36,000  Level Houston Center
12:41 30.1219 -92.2406 298° West 412 474 36,000  Level Houston Center
12:42 30.1892 -92.3789 299° West 411 473 36,000  Level Houston Center
12:43 30.2436 -92.4947 299° West 411 473 36,000 600 Level Houston Center
12:44 30.2992 -92.6103 299° West 411 473 37,300 960 Climbing Houston Center
12:45 30.3522 -92.7242 298° West 405 466 38,000 300 Climbing Houston Center
12:46 30.4067 -92.8389 299° West 407 468 38,000  Level Houston Center
12:47 30.4606 -92.9547 298° West 410 472 38,000  Level Houston Center
12:48 30.5264 -93.0933 299° West 411 473 38,000  Level Houston Center
12:49 30.5803 -93.2097 298° West 412 474 38,000  Level Houston Center
12:50 30.6336 -93.3250 298° West 412 474 38,000  Level Houston Center
12:51 30.6867 -93.4406 298° West 411 473 38,000  Level Houston Center
12:52 30.7400 -93.5561 298° West 410 472 38,000  Level Houston Center
12:53 30.8033 -93.6953 298° West 410 472 38,000 -60 Level Houston Center
12:54 30.8572 -93.8103 299° West 408 470 37,900  Descending Houston Center
12:55 30.9100 -93.9261 298° West 407 468 38,000  Climbing Houston Center
12:56 30.9622 -94.0436 297° West 409 471 38,000  Level Houston Center
12:57 31.0189 -94.1669 298° West 409 471 38,000  Level Houston Center
12:58 31.0714 -94.2842 298° West 407 468 38,000  Level Houston Center
12:59 31.1239 -94.4019 298° West 410 472 38,000  Level Houston Center
13:00 31.1889 -94.5450 298° West 416 479 38,000  Level Houston Center
13:01 31.2394 -94.6583 298° West 418 481 38,000  Level Houston Center
13:02 31.2942 -94.7819 297° West 426 490 38,000  Level Houston Center
13:03 31.3489 -94.9047 298° West 431 496 38,000  Level Houston Center
13:04 31.4147 -95.0542 297° West 432 497 38,000  Level Houston Center
13:05 31.4697 -95.1789 297° West 434 499 38,000  Level Houston Center
13:06 31.5258 -95.3125 296° West 433 498 38,000  Level Fort Worth Center
13:07 31.5842 -95.4356 299° West 421 484 38,000  Level Fort Worth Center
13:08 31.6361 -95.5614 296° West 426 490 38,000  Level Fort Worth Center
13:09 31.6922 -95.6897 297° West 426 490 38,000  Level Fort Worth Center
13:10 31.7461 -95.8156 297° West 426 490 38,000  Level Fort Worth Center
13:11 31.7978 -95.9394 296° West 426 490 38,000  Level Fort Worth Center
13:12 31.8533 -96.0633 298° West 419 482 38,000  Level Fort Worth Center
13:13 31.9089 -96.1922 297° West 433 498 38,000  Level Fort Worth Center
13:14 31.9644 -96.3164 298° West 433 498 38,000  Level Fort Worth Center
13:15 32.0156 -96.4431 295° West 433 498 38,000  Level Fort Worth Center
13:16 32.0706 -96.5650 298° West 421 484 38,000  Level Fort Worth Center
13:17 32.1258 -96.6969 296° West 427 491 38,000  Level Fort Worth Center
13:18 32.1700 -96.8072 295° West 427 491 38,000  Level Fort Worth Center
13:19 32.2228 -96.9344 296° West 421 484 38,000  Level Fort Worth Center
13:20 32.2714 -97.0547 296° West 412 474 38,000  Level Fort Worth Center
13:21 32.3281 -97.1922 296° West 428 493 38,000  Level Fort Worth Center
13:22 32.3783 -97.3075 297° West 428 493 38,000  Level Fort Worth Center
13:23 32.4325 -97.4431 295° West 422 486 38,000  Level Fort Worth Center
13:24 32.4783 -97.5564 296° West 422 486 38,000  Level Fort Worth Center
13:25 32.5325 -97.6894 296° West 422 486 38,000  Level Fort Worth Center
13:26 32.5822 -97.8103 296° West 417 480 38,000  Level Fort Worth Center
13:27 32.6319 -97.9264 297° West 404 465 38,000  Level Fort Worth Center
13:28 32.6794 -98.0453 295° West 404 465 38,000  Level Fort Worth Center
13:29 32.7289 -98.1642 296° West 404 465 38,000  Level Fort Worth Center
13:30 32.7761 -98.2831 295° West 404 465 38,000  Level Fort Worth Center
13:31 32.8192 -98.3922 295° West 404 465 38,000  Level Fort Worth Center
13:32 32.8722 -98.5192 296° West 398 458 38,000  Level Fort Worth Center
13:33 32.9233 -98.6386 297° West 398 458 38,000  Level Fort Worth Center
13:34 32.9681 -98.7581 294° West 398 458 38,000  Level Fort Worth Center
13:35 33.0169 -98.8778 296° West 403 464 38,000  Level Fort Worth Center
13:36 33.0614 -98.9947 294° West 403 464 38,000  Level Fort Worth Center
13:37 33.1078 -99.1122 294° West 398 458 38,000  Level Fort Worth Center
13:38 33.1110 -99.1261 294° West  Level FlightAware Approximate
13:38 33.1561 -99.2297 296° West 398 458 38,000  Level Fort Worth Center
13:39 33.2003 -99.3475 294° West 398 458 38,000  Level Fort Worth Center
13:40 33.2486 -99.4678 296° West 398 458 38,000  Level Fort Worth Center
13:41 33.2925 -99.5856 294° West 398 458 38,000  Level Fort Worth Center
13:44 33.4136 -99.8908 295° West 390 449 38,000  Level Albuquerque Center
13:44 33.4319 -99.9422 293° West 398 458 38,000  Level Fort Worth Center
13:45 33.4753 -100.0606 294° West 398 458 38,000  Level Fort Worth Center
13:46 33.5208 -100.1792 295° West 393 452 38,000  Level Fort Worth Center
13:47 33.5661 -100.2978 295° West 393 452 38,000  Level Fort Worth Center
13:48 33.6094 -100.4139 294° West 388 447 38,000  Level Fort Worth Center
13:49 33.6525 -100.5300 294° West 388 447 38,000  Level Fort Worth Center
13:50 33.6975 -100.6442 295° West 381 438 38,000  Level Fort Worth Center
13:51 33.7367 -100.7453 295° West 381 438 38,000  Level Fort Worth Center
13:52 33.7833 -100.8722 294° West 381 438 38,000  Level Fort Worth Center
13:53 33.8239 -100.9886 293° West 381 438 38,000  Level Fort Worth Center
13:54 33.8683 -101.1031 295° West 376 433 38,000  Level Fort Worth Center
13:55 33.9131 -101.2200 295° West 377 434 38,000  Level Fort Worth Center
13:56 33.9533 -101.3319 293° West 377 434 38,000  Level Fort Worth Center
13:57 33.9975 -101.4517 294° West 377 434 38,000  Level Fort Worth Center
13:58 34.0378 -101.5639 293° West 382 440 38,000  Level Fort Worth Center
13:59 34.0778 -101.6761 293° West 371 427 38,000  Level Fort Worth Center
14:00 34.1197 -101.7911 294° West 371 427 38,000  Level Fort Worth Center
14:01 34.1594 -101.9036 293° West 363 418 38,000  Level Fort Worth Center
14:02 34.1992 -102.0136 294° West 363 418 38,000  Level Fort Worth Center
14:03 34.2411 -102.1264 294° West 369 425 38,000  Level Fort Worth Center
14:04 34.2508 -102.1497 297° West 363 418 38,000  Level Albuquerque Center
14:05 34.2908 -102.2622 293° West 362 417 38,000  Level Albuquerque Center
14:06 34.3308 -102.3761 293° West 365 420 38,000  Level Albuquerque Center
14:07 34.3714 -102.4886 294° West 364 419 38,000  Level Albuquerque Center
14:08 34.4128 -102.6031 294° West 368 423 38,000  Level Albuquerque Center
14:09 34.4528 -102.7183 293° West 370 426 38,000  Level Albuquerque Center
14:10 34.4964 -102.8453 293° West 373 429 38,000  Level Albuquerque Center
14:11 34.5150 -102.9697 280° West 370 426 38,000  Level Albuquerque Center
14:12 34.5383 -103.1125 281° West 368 423 38,000  Level Albuquerque Center
14:13 34.5567 -103.2358 280° West 368 423 38,000  Level Albuquerque Center
14:14 34.5756 -103.3583 281° West 367 422 38,000  Level Albuquerque Center
14:15 34.5942 -103.4808 280° West 366 421 38,000  Level Albuquerque Center
14:16 34.6117 -103.6047 280° West 368 423 38,000  Level Albuquerque Center
14:17 34.6303 -103.7283 280° West 367 422 38,000  Level Albuquerque Center
14:18 34.6483 -103.8511 280° West 367 422 38,000  Level Albuquerque Center
14:19 34.6656 -103.9750 280° West 368 423 38,000  Level Albuquerque Center
14:20 34.6867 -104.1192 280° West 367 422 38,000  Level Albuquerque Center
14:21 34.7039 -104.2425 280° West 367 422 38,000  Level Albuquerque Center
14:22 34.7225 -104.3658 280° West 366 421 38,000  Level Albuquerque Center
14:23 34.7386 -104.4897 279° West 367 422 38,000  Level Albuquerque Center
14:24 34.7572 -104.6136 280° West 367 422 38,000  Level Albuquerque Center
14:25 34.7750 -104.7394 280° West 372 428 38,000  Level Albuquerque Center
14:26 34.7914 -104.8642 279° West 370 426 38,000  Level Albuquerque Center
14:27 34.8100 -104.9900 280° West 372 428 38,000  Level Albuquerque Center
14:28 34.8269 -105.1175 279° West 376 433 38,000  Level Albuquerque Center
14:30 34.8472 -105.2669 279° West 378 435 38,000  Level Albuquerque Center
14:31 34.8658 -105.3956 280° West 381 438 38,000  Level Albuquerque Center
14:32 34.8817 -105.5228 279° West 378 435 38,000  Level Albuquerque Center
14:33 34.8989 -105.6486 280° West 375 432 38,000  Level Albuquerque Center
14:34 34.9156 -105.7742 279° West 374 430 38,000  Level Albuquerque Center
14:35 34.9303 -105.9017 278° West 372 428 38,000  Level Albuquerque Center
14:36 34.9458 -106.0256 279° West 371 427 38,000  Level Albuquerque Center
14:37 34.9614 -106.1478 279° West 368 423 38,000  Level Albuquerque Center
14:38 34.9764 -106.2694 279° West 365 420 38,000  Level Albuquerque Center
14:39 34.9919 -106.3936 279° West 369 425 38,000  Level Albuquerque Center
14:40 35.0100 -106.5425 278° West 367 422 38,000  Level Albuquerque Center
14:41 35.0239 -106.6647 278° West 377 434 38,000  Level Albuquerque Center
14:42 35.0394 -106.8047 278° West 374 430 38,000  Level Albuquerque Center
14:43 35.0669 -106.9169 287° West 362 417 38,000  Level Albuquerque Center
14:44 35.0931 -107.0353 285° West 374 430 38,000  Level Albuquerque Center
14:45 35.1231 -107.1733 285° West 378 435 38,000  Level Albuquerque Center
14:46 35.1481 -107.2981 284° West 385 443 38,000  Level Albuquerque Center
14:47 35.1650 -107.4228 279° West 375 432 38,000  Level Albuquerque Center
14:48 35.1783 -107.5567 277° West 375 432 38,000  Level Albuquerque Center
14:49 35.1919 -107.6961 277° West 372 428 38,000  Level Albuquerque Center
14:50 35.2044 -107.8167 277° West 372 428 38,000  Level Albuquerque Center
14:51 35.2156 -107.9414 276° West 381 438 38,000  Level Albuquerque Center
14:52 35.2297 -108.0833 277° West 378 435 38,000  Level Albuquerque Center
14:53 35.2419 -108.2047 277° West 376 433 38,000  Level Albuquerque Center
14:54 35.2542 -108.3489 276° West 379 436 38,000  Level Albuquerque Center
14:55 35.2661 -108.4708 277° West 377 434 38,000  Level Albuquerque Center
14:56 35.2794 -108.6122 277° West 375 432 38,000  Level Albuquerque Center
14:57 35.2903 -108.7339 276° West 374 430 38,000  Level Albuquerque Center
14:58 35.3044 -108.8758 277° West 375 432 38,000  Level Albuquerque Center
14:59 35.3144 -108.9975 276° West 375 432 38,000  Level Albuquerque Center
15:00 35.3250 -109.1208 276° West 378 435 38,000  Level Albuquerque Center
15:01 35.3378 -109.2661 276° West 381 438 38,000  Level Albuquerque Center
15:02 35.3483 -109.3883 276° West 378 435 38,000  Level Albuquerque Center
15:04 35.3594 -109.5311 275° West 377 434 38,000  Level Albuquerque Center
15:05 35.3708 -109.6567 276° West 382 440 38,000  Level Albuquerque Center
15:06 35.3803 -109.7803 275° West 381 438 38,000  Level Albuquerque Center
15:07 35.3917 -109.9239 276° West 379 436 38,000  Level Albuquerque Center
15:08 35.4003 -110.0469 275° West 379 436 38,000  Level Albuquerque Center
15:09 35.4100 -110.1906 275° West 379 436 38,000  Level Albuquerque Center
15:10 35.4178 -110.3144 274° West 380 437 38,000  Level Albuquerque Center
15:11 35.4303 -110.4600 276° West 382 440 38,000  Level Albuquerque Center
15:12 35.4394 -110.5836 275° West 382 440 38,000  Level Albuquerque Center
15:13 35.4508 -110.7292 276° West 383 441 38,000  Level Albuquerque Center
15:14 35.4589 -110.8547 275° West 385 443 38,000  Level Albuquerque Center
15:15 35.4683 -110.9797 275° West 385 443 38,000  Level Albuquerque Center
15:16 35.4781 -111.1289 275° West 390 449 38,000  Level Albuquerque Center
15:17 35.4881 -111.2564 276° West 391 450 38,000 -720 Level Albuquerque Center
15:18 35.4992 -111.4022 275° West 387 445 36,600 -1,860 Descending Albuquerque Center
15:19 35.5069 -111.5375 274° West 386 444 34,200 -2,100 Descending Albuquerque Center
15:20 35.5158 -111.6572 275° West 366 421 32,300 -1,860 Descending Albuquerque Center
15:21 35.5225 -111.7714 274° West 346 398 30,400 -1,140 Descending Albuquerque Center
15:22 35.5303 -111.8819 275° West 333 383 30,000 -240 Descending Albuquerque Center
15:23 35.5372 -111.9975 274° West 337 388 30,000  Level Albuquerque Center
15:24 35.5442 -112.1119 274° West 340 391 30,000  Level Albuquerque Center
15:25 35.5508 -112.2050 275° West 341 392 30,000  Level Los Angeles Center
15:26 35.5589 -112.3425 274° West 340 391 30,000  Level Los Angeles Center
15:27 35.5653 -112.4561 274° West 338 389 30,000  Level Los Angeles Center
15:28 35.5719 -112.5703 274° West 338 389 30,000  Level Los Angeles Center
15:29 35.5794 -112.6850 275° West 336 387 30,000  Level Los Angeles Center
15:30 35.5878 -112.8358 274° West 377 434 30,000  Level Los Angeles Center
15:31 35.5947 -112.9700 274° West 380 437 30,000  Level Los Angeles Center
15:32 35.6011 -113.0997 274° West 380 437 30,000 -420 Level Los Angeles Center
15:33 35.6081 -113.2297 274° West 381 438 29,200 -960 Descending Los Angeles Center
15:34 35.6153 -113.3639 274° West 373 429 28,100 -1,080 Descending Los Angeles Center
15:35 35.6219 -113.4875 274° West 366 421 27,000 -1,560 Descending Los Angeles Center
15:36 35.6319 -113.6058 276° West 354 407 24,900 -2,100 Descending Los Angeles Center
15:37 35.6503 -113.7219 281° West 348 400 22,700 -2,100 Descending Los Angeles Center
15:38 35.6669 -113.8400 280° West 353 406 20,600 -2,280 Descending Los Angeles Center
15:39 35.6858 -113.9769 280° West 339 390 18,000 -2,280 Descending Los Angeles Center
15:40 35.7008 -114.0886 279° West 334 384 16,000 -2,040 Descending Los Angeles Center
15:42 35.7172 -114.2019 280° West 340 391 13,900 -1,800 Descending Los Angeles Center
15:43 35.7328 -114.3164 280° West 340 391 12,300 -960 Descending Los Angeles Center
15:44 35.7906 -114.4061 308° West 309 356 12,000 -180 Descending Los Angeles Center
15:45 35.8633 -114.4389 340° North 299 344 12,000 -720 Level Los Angeles Center
15:46 35.9506 -114.4811 339° North 294 338 10,600 -1,020 Descending Los Angeles Center
15:47 36.0097 -114.5236 330° Northwest 289 333 9,900 -900 Descending Los Angeles Center
15:48 36.0397 -114.6186 291° West 275 316 8,900 -1,020 Descending Los Angeles Center
15:49 36.0658 -114.7003 292° West 276 318 7,900 -840 Descending Los Angeles Center
15:50 36.0753 -114.7986 277° West 252 290 7,300 -1,080 Descending Los Angeles Center
15:51 36.0739 -114.8814 269° West 242 278 5,900 -1,320 Descending Los Angeles Center
15:52 36.0717 -114.9700 268° West 225 259 4,500 -1,200 Descending Los Angeles Center
15:53 36.0739 -115.0386 272° West 188 216 3,400 -960 Descending Los Angeles Center
15:54 36.0725 -115.0922 268° West 148 170 2,600 -720 Descending Los Angeles Center
15:55 36.0747 -115.1367 274° West 157 181 1,900 -660 Descending Los Angeles Center
15:57 36.0667 -115.1500 270° West  Level FlightAware Approximate